Regional Weather Roundup
Issued by NWS

Home | Current Version | Previous Version | Graphics & Text | Print | Product List | Glossary On
Versions: 1 2 3 4 5 6 7 8 9 10 11 12 13 14 15 16 17 18 19 20 21 22 23 24 25 26 27 28 29 30 31 32 33 34 35 36 37 38 39 40 41 42 43 44 45 46 47 48 49 50
739
ASUS43 KOAX 050602
RWRNE

WEATHER ROUNDUP FOR NEBRASKA
NATIONAL WEATHER SERVICE OMAHA NE
100 AM CDT THU MAY 05 2016

NOTES: SATELLITE DATA IS BEING USED TO AUGMENT CLOUD COVER ABOVE
       12000 FEET.
       "FAIR" INDICATES FEW OR NO CLOUDS BELOW 12,000 FEET WITH NO
       SIGNIFICANT WEATHER AND/OR OBSTRUCTIONS TO VISIBILITY.

  * THESE STATIONS DO NOT REPORT WEATHER SUCH AS RAIN...SNOW OR FOG.

NEZ001>004-019>022-054>056-050700-
NEBRASKA PANHANDLE

CITY           SKY/WX    TMP DP  RH WIND       PRES   REMARKS
SCOTTSBLUFF    CLEAR     51  42  71 E7        30.09S
6HR MIN TEMP:  50; 6HR MAX TEMP:  75;

ALLIANCE       CLEAR     46  42  86 SE10      30.08F
6HR MIN TEMP:  45; 6HR MAX TEMP:  72;

CHADRON        CLEAR     60  38  43 CALM      30.04R
6HR MIN TEMP:  52; 6HR MAX TEMP:  75;

KIMBALL        CLEAR     48  41  76 S8        30.15S
SIDNEY         CLEAR     47  40  76 S9        30.13S
6HR MIN TEMP:  47; 6HR MAX TEMP:  73;

$$

NEZ057>060-069>072-079>082-050700-
SOUTHWEST NEBRASKA

CITY           SKY/WX    TMP DP  RH WIND       PRES   REMARKS
NORTH PLATTE   CLEAR     46  40  79 E3        30.08S
6HR MIN TEMP:  45; 6HR MAX TEMP:  74;

IMPERIAL       CLEAR     52  41  66 SE6       30.10S
6HR MIN TEMP:  50; 6HR MAX TEMP:  76;

MCCOOK         CLEAR     56  41  57 SW3       30.09S
6HR MIN TEMP:  54; 6HR MAX TEMP:  76;

$$

NEZ005>010-023>029-035>040-094-050700-
NORTH CENTRAL NEBRASKA

CITY           SKY/WX    TMP DP  RH WIND       PRES   REMARKS
VALENTINE      CLEAR     49  39  68 CALM      30.07S
6HR MIN TEMP:  48; 6HR MAX TEMP:  74;

AINSWORTH      CLEAR     45  38  77 S7        30.07F
BROKEN BOW     CLEAR     43  38  82 CALM      30.08S
6HR MIN TEMP:  41; 6HR MAX TEMP:  72;

ORD            PTCLDY    42  38  85 SW3       30.07S
6HR MIN TEMP:  42; 6HR MAX TEMP:  69;

$$

NEZ041-046>049-061>064-073>077-083>087-050700-
SOUTH CENTRAL NEBRASKA

CITY           SKY/WX    TMP DP  RH WIND       PRES   REMARKS
GRAND ISLAND   CLEAR     48  37  65 N3        30.08S
6HR MIN TEMP:  47; 6HR MAX TEMP:  69;

AURORA         CLEAR     48  35  61 N5        30.07S
HASTINGS       CLEAR     51  37  58 CALM      30.07S
6HR MIN TEMP:  47; 6HR MAX TEMP:  68;

YORK           CLEAR     48  37  66 NW5       30.07S
$$

NEZ011>018-030>034-042>045-050700-
NORTHEAST NEBRASKA

CITY           SKY/WX    TMP DP  RH WIND       PRES   REMARKS
NORFOLK        CLEAR     47  36  65 CALM      30.05S
6HR MIN TEMP:  45; 6HR MAX TEMP:  67;

ALBION         CLEAR     41  36  83 CALM      30.07S
BLAIR          CLEAR     53  39  60 NW5       30.02F
COLUMBUS *     CLEAR     43  32  65 CALM      30.06F
FREMONT        CLEAR     49  40  71 W5        30.04S
TEKAMAH        CLEAR     51  39  63 NW8       30.02R
6HR MIN TEMP:  50; 6HR MAX TEMP:  67;

$$

NEZ050>053-065>068-078-088>093-050700-
SOUTHEAST NEBRASKA

CITY           SKY/WX    TMP DP  RH WIND       PRES   REMARKS
LINCOLN        CLEAR     46  39  76 N3        30.06R
6HR MIN TEMP:  46; 6HR MAX TEMP:  71;

OMAHA EPPLEY   CLEAR     52  44  74 CALM      30.02R
6HR MIN TEMP:  51; 6HR MAX TEMP:  67;

BEATRICE       CLEAR     46  39  78 CALM      30.05S
$$

NEZ044-045-051>053-067-050700-
OMAHA AREA

CITY           SKY/WX    TMP DP  RH WIND       PRES   REMARKS
OMAHA EPPLEY   CLEAR     52  44  74 CALM      30.02R
6HR MIN TEMP:  51; 6HR MAX TEMP:  67;

BLAIR          CLEAR     53  39  60 NW5       30.02F
FREMONT        CLEAR     49  40  71 W5        30.04S
OFFUTT AFB     CLEAR     48  44  86 W5        30.01S
$$




USA.gov is the U.S. government's official web portal to all federal, state and local government web resources and services.